Tracking 19920 objects as of 14-Oct-2019
HD Live streaming from Space Station
objects crossing your sky now

SL-14 R/B

Track SL-14 R/B now!
10-day predictions


NORAD ID: 16327
Int'l Code: 1985-113B
Perigee: 611.3 km
Apogee: 639.9 km
Inclination: 82.5 °
Period: 97.1 minutes
Semi major axis: 6996 km
RCS: 4.5252 m2 (large)
Launch date: December 12, 1985
Source: Commonwealth of Independent States (former USSR) (CIS)
Launch site: PLESETSK MISSILE AND SPACE COMPLEX (PKMTR)

Note: This is a ROCKET BODY
aabbcc
Your satellite tracking list
Your tracking list is empty




NASA's NSSDC Master Catalog

Two Line Element Set (TLE):
1 16327U 85113B   19286.78618406  .00000069  00000-0  54182-5 0  9993
2 16327  82.5380  19.0346 0020486  71.4075  46.5790 14.83445742827688
Source of the keplerian elements: AFSPC